Wetterdaten: Donnerstag, 17.09.2015
Datum Zeit Temp. A. Feuchte A. Luftdruck Regen Wind Richtung Richtung Sonnenschein ET UV Solar Taupunkt Windchill Windben Empfang
17.09.2015 00:04 15,7 C 91 % 1002,3 hPa 0,0 l/m 0,0 km/h (0 Bft) O-NO 59 0 min 0,000 mm 0,0 UV-I 0 W/m 14,2 C 15,7 C 0,0 km/h (0 Bft) 0,00 %
17.09.2015 00:09 15,6 C 91 % 1002,3 hPa 0,0 l/m 0,0 km/h (0 Bft) NO 55 0 min 0,000 mm 0,0 UV-I 0 W/m 14,1 C 15,6 C 0,0 km/h (0 Bft) 0,00 %
17.09.2015 00:14 15,5 C 91 % 1002,4 hPa 0,0 l/m 0,0 km/h (0 Bft) O-NO 70 0 min 0,000 mm 0,0 UV-I 0 W/m 14,0 C 15,5 C 0,0 km/h (0 Bft) 0,00 %
17.09.2015 00:19 15,5 C 92 % 1002,2 hPa 0,0 l/m 0,0 km/h (0 Bft) O-NO 67 0 min 0,000 mm 0,0 UV-I 0 W/m 14,2 C 15,5 C 0,0 km/h (0 Bft) 0,00 %
17.09.2015 00:24 15,5 C 92 % 1002,3 hPa 0,0 l/m 0,0 km/h (0 Bft) O-NO 65 0 min 0,000 mm 0,0 UV-I 0 W/m 14,2 C 15,5 C 0,0 km/h (0 Bft) 0,00 %
17.09.2015 00:29 15,5 C 92 % 1002,2 hPa 0,0 l/m 0,0 km/h (0 Bft) O-NO 75 0 min 0,000 mm 0,0 UV-I 0 W/m 14,2 C 15,5 C 0,0 km/h (0 Bft) 0,00 %
17.09.2015 00:34 15,5 C 92 % 1002,3 hPa 0,0 l/m 0,0 km/h (0 Bft) O-NO 65 0 min 0,000 mm 0,0 UV-I 0 W/m 14,2 C 15,5 C 0,0 km/h (0 Bft) 0,00 %
17.09.2015 00:39 15,5 C 92 % 1002,1 hPa 0,0 l/m 0,0 km/h (0 Bft) O-NO 63 0 min 0,000 mm 0,0 UV-I 0 W/m 14,2 C 15,5 C 0,0 km/h (0 Bft) 0,00 %
17.09.2015 00:44 15,5 C 92 % 1002,1 hPa 0,0 l/m 0,0 km/h (0 Bft) O-NO 74 0 min 0,000 mm 0,0 UV-I 0 W/m 14,2 C 15,5 C 0,0 km/h (0 Bft) 0,00 %
17.09.2015 00:49 15,5 C 92 % 1002,4 hPa 0,0 l/m 0,0 km/h (0 Bft) O 84 0 min 0,000 mm 0,0 UV-I 0 W/m 14,2 C 15,5 C 0,0 km/h (0 Bft) 0,00 %
17.09.2015 00:54 15,5 C 91 % 1002,4 hPa 0,0 l/m 0,0 km/h (0 Bft) O-NO 64 0 min 0,000 mm 0,0 UV-I 0 W/m 14,0 C 15,5 C 0,0 km/h (0 Bft) 0,00 %
17.09.2015 00:59 15,3 C 91 % 1002,3 hPa 0,0 l/m 0,0 km/h (0 Bft) NO 54 0 min 0,000 mm 0,0 UV-I 0 W/m 13,8 C 15,3 C 0,0 km/h (0 Bft) 0,00 %
17.09.2015 01:04 15,2 C 92 % 1002,3 hPa 0,0 l/m 0,0 km/h (0 Bft) O 99 0 min 0,000 mm 0,0 UV-I 0 W/m 13,9 C 15,2 C 0,0 km/h (0 Bft) 0,00 %
17.09.2015 01:09 15,2 C 92 % 1002,1 hPa 0,0 l/m 0,0 km/h (0 Bft) O-NO 66 0 min 0,000 mm 0,0 UV-I 0 W/m 13,9 C 15,2 C 0,0 km/h (0 Bft) 0,00 %
17.09.2015 01:14 15,2 C 92 % 1002,2 hPa 0,0 l/m 0,0 km/h (0 Bft) O-NO 63 0 min 0,000 mm 0,0 UV-I 0 W/m 13,9 C 15,2 C 0,0 km/h (0 Bft) 0,00 %
17.09.2015 01:19 15,1 C 92 % 1002,3 hPa 0,0 l/m 0,0 km/h (0 Bft) NO 52 0 min 0,000 mm 0,0 UV-I 0 W/m 13,8 C 15,1 C 0,0 km/h (0 Bft) 0,00 %
17.09.2015 01:24 15,0 C 92 % 1002,5 hPa 0,0 l/m 0,0 km/h (0 Bft) O-NO 66 0 min 0,000 mm 0,0 UV-I 0 W/m 13,7 C 15,0 C 0,0 km/h (0 Bft) 0,00 %
17.09.2015 01:29 14,8 C 93 % 1002,3 hPa 0,0 l/m 0,0 km/h (0 Bft) O-NO 67 0 min 0,000 mm 0,0 UV-I 0 W/m 13,7 C 14,8 C 0,0 km/h (0 Bft) 0,00 %
17.09.2015 01:34 14,5 C 93 % 1002,3 hPa 0,0 l/m 0,0 km/h (0 Bft) O 94 0 min 0,000 mm 0,0 UV-I 0 W/m 13,4 C 14,5 C 0,0 km/h (0 Bft) 0,00 %
17.09.2015 01:39 14,3 C 93 % 1002,4 hPa 0,0 l/m 0,0 km/h (0 Bft) O-NO 60 0 min 0,000 mm 0,0 UV-I 0 W/m 13,2 C 14,3 C 0,0 km/h (0 Bft) 0,00 %
17.09.2015 01:44 14,2 C 93 % 1002,4 hPa 0,0 l/m 0,0 km/h (0 Bft) O-NO 73 0 min 0,000 mm 0,0 UV-I 0 W/m 13,1 C 14,2 C 0,0 km/h (0 Bft) 0,00 %
17.09.2015 01:49 14,1 C 93 % 1002,4 hPa 0,0 l/m 0,0 km/h (0 Bft) O-NO 61 0 min 0,000 mm 0,0 UV-I 0 W/m 13,0 C 14,1 C 0,0 km/h (0 Bft) 0,00 %
17.09.2015 01:54 14,1 C 94 % 1002,3 hPa 0,0 l/m 0,0 km/h (0 Bft) O-NO 72 0 min 0,000 mm 0,0 UV-I 0 W/m 13,1 C 14,1 C 0,0 km/h (0 Bft) 0,00 %
17.09.2015 01:59 14,1 C 94 % 1002,5 hPa 0,0 l/m 0,0 km/h (0 Bft) O-NO 63 0 min 0,000 mm 0,0 UV-I 0 W/m 13,1 C 14,1 C 0,0 km/h (0 Bft) 0,00 %
17.09.2015 02:04 14,1 C 94 % 1002,4 hPa 0,0 l/m 0,0 km/h (0 Bft) O-NO 67 0 min 0,000 mm 0,0 UV-I 0 W/m 13,1 C 14,1 C 0,0 km/h (0 Bft) 0,00 %
17.09.2015 02:09 14,0 C 94 % 1002,5 hPa 0,0 l/m 0,0 km/h (0 Bft) O-NO 68 0 min 0,000 mm 0,0 UV-I 0 W/m 13,0 C 14,0 C 0,0 km/h (0 Bft) 0,00 %
17.09.2015 02:14 14,0 C 94 % 1002,4 hPa 0,0 l/m 0,0 km/h (0 Bft) O-NO 75 0 min 0,000 mm 0,0 UV-I 0 W/m 13,0 C 14,0 C 0,0 km/h (0 Bft) 0,00 %
17.09.2015 02:19 13,9 C 94 % 1002,6 hPa 0,0 l/m 0,0 km/h (0 Bft) O-NO 77 0 min 0,000 mm 0,0 UV-I 0 W/m 12,9 C 13,9 C 0,0 km/h (0 Bft) 0,00 %
17.09.2015 02:24 14,0 C 94 % 1002,5 hPa 0,0 l/m 0,0 km/h (0 Bft) O-NO 74 0 min 0,000 mm 0,0 UV-I 0 W/m 13,0 C 14,0 C 0,0 km/h (0 Bft) 0,00 %
17.09.2015 02:29 13,9 C 95 % 1002,5 hPa 0,0 l/m 0,0 km/h (0 Bft) O-NO 66 0 min 0,000 mm 0,0 UV-I 0 W/m 13,1 C 13,9 C 0,0 km/h (0 Bft) 0,00 %
17.09.2015 02:34 13,9 C 95 % 1002,6 hPa 0,0 l/m 0,0 km/h (0 Bft) O-NO 75 0 min 0,000 mm 0,0 UV-I 0 W/m 13,1 C 13,9 C 0,0 km/h (0 Bft) 0,00 %
17.09.2015 02:39 13,7 C 95 % 1002,3 hPa 0,0 l/m 0,0 km/h (0 Bft) O 91 0 min 0,000 mm 0,0 UV-I 0 W/m 12,9 C 13,7 C 0,0 km/h (0 Bft) 0,00 %
17.09.2015 02:44 13,6 C 95 % 1002,4 hPa 0,0 l/m 0,0 km/h (0 Bft) O-NO 75 0 min 0,000 mm 0,0 UV-I 0 W/m 12,8 C 13,6 C 0,0 km/h (0 Bft) 0,00 %
17.09.2015 02:49 13,5 C 95 % 1002,4 hPa 0,0 l/m 0,0 km/h (0 Bft) O-NO 76 0 min 0,000 mm 0,0 UV-I 0 W/m 12,7 C 13,5 C 0,0 km/h (0 Bft) 0,00 %
17.09.2015 02:54 13,5 C 95 % 1002,5 hPa 0,0 l/m 0,0 km/h (0 Bft) O 84 0 min 0,000 mm 0,0 UV-I 0 W/m 12,7 C 13,5 C 0,0 km/h (0 Bft) 0,00 %
17.09.2015 02:59 13,4 C 95 % 1002,6 hPa 0,0 l/m 0,0 km/h (0 Bft) O-NO 61 0 min 0,000 mm 0,0 UV-I 0 W/m 12,6 C 13,4 C 0,0 km/h (0 Bft) 0,00 %
17.09.2015 03:04 13,3 C 95 % 1002,6 hPa 0,0 l/m 0,0 km/h (0 Bft) O-NO 74 0 min 0,000 mm 0,0 UV-I 0 W/m 12,5 C 13,3 C 0,0 km/h (0 Bft) 0,00 %
17.09.2015 03:09 13,2 C 95 % 1002,7 hPa 0,0 l/m 0,0 km/h (0 Bft) O-NO 67 0 min 0,000 mm 0,0 UV-I 0 W/m 12,4 C 13,2 C 0,0 km/h (0 Bft) 0,00 %
17.09.2015 03:14 13,2 C 95 % 1002,5 hPa 0,0 l/m 0,0 km/h (0 Bft) O-NO 72 0 min 0,000 mm 0,0 UV-I 0 W/m 12,4 C 13,2 C 0,0 km/h (0 Bft) 0,00 %
17.09.2015 03:19 13,1 C 95 % 1002,5 hPa 0,0 l/m 0,0 km/h (0 Bft) O-NO 62 0 min 0,000 mm 0,0 UV-I 0 W/m 12,3 C 13,1 C 0,0 km/h (0 Bft) 0,00 %
17.09.2015 03:24 13,1 C 96 % 1002,4 hPa 0,0 l/m 0,0 km/h (0 Bft) O 79 0 min 0,000 mm 0,0 UV-I 0 W/m 12,5 C 13,1 C 0,0 km/h (0 Bft) 0,00 %
17.09.2015 03:29 13,2 C 96 % 1002,4 hPa 0,0 l/m 0,0 km/h (0 Bft) O-NO 71 0 min 0,000 mm 0,0 UV-I 0 W/m 12,6 C 13,2 C 0,0 km/h (0 Bft) 0,00 %
17.09.2015 03:34 13,2 C 96 % 1002,6 hPa 0,0 l/m 0,0 km/h (0 Bft) O-NO 59 0 min 0,000 mm 0,0 UV-I 0 W/m 12,6 C 13,2 C 0,0 km/h (0 Bft) 0,00 %
17.09.2015 03:39 13,1 C 96 % 1002,6 hPa 0,0 l/m 0,0 km/h (0 Bft) O-NO 68 0 min 0,000 mm 0,0 UV-I 0 W/m 12,5 C 13,1 C 0,0 km/h (0 Bft) 0,00 %
17.09.2015 03:44 13,2 C 96 % 1002,6 hPa 0,0 l/m 0,0 km/h (0 Bft) O-NO 78 0 min 0,000 mm 0,0 UV-I 0 W/m 12,6 C 13,2 C 0,0 km/h (0 Bft) 0,00 %
17.09.2015 03:49 13,3 C 96 % 1002,4 hPa 0,0 l/m 0,0 km/h (0 Bft) O-NO 63 0 min 0,000 mm 0,0 UV-I 0 W/m 12,7 C 13,3 C 0,0 km/h (0 Bft) 0,00 %
17.09.2015 03:54 13,3 C 96 % 1002,7 hPa 0,0 l/m 0,0 km/h (0 Bft) O-NO 58 0 min 0,000 mm 0,0 UV-I 0 W/m 12,7 C 13,3 C 0,0 km/h (0 Bft) 0,00 %
17.09.2015 03:59 13,3 C 96 % 1002,7 hPa 0,0 l/m 0,0 km/h (0 Bft) O 80 0 min 0,000 mm 0,0 UV-I 0 W/m 12,7 C 13,3 C 0,0 km/h (0 Bft) 0,00 %
17.09.2015 04:04 13,2 C 96 % 1002,4 hPa 0,0 l/m 0,0 km/h (0 Bft) O-NO 68 0 min 0,000 mm 0,0 UV-I 0 W/m 12,6 C 13,2 C 0,0 km/h (0 Bft) 0,00 %
17.09.2015 04:09 13,2 C 96 % 1002,5 hPa 0,0 l/m 0,0 km/h (0 Bft) O-NO 60 0 min 0,000 mm 0,0 UV-I 0 W/m 12,6 C 13,2 C 0,0 km/h (0 Bft) 0,00 %
17.09.2015 04:14 13,4 C 96 % 1002,5 hPa 0,0 l/m 0,0 km/h (0 Bft) O-NO 70 0 min 0,000 mm 0,0 UV-I 0 W/m 12,8 C 13,4 C 0,0 km/h (0 Bft) 0,00 %
17.09.2015 04:19 13,5 C 96 % 1002,6 hPa 0,0 l/m 0,0 km/h (0 Bft) O-NO 64 0 min 0,000 mm 0,0 UV-I 0 W/m 12,9 C 13,5 C 0,0 km/h (0 Bft) 0,00 %
17.09.2015 04:24 13,6 C 95 % 1002,5 hPa 0,0 l/m 0,0 km/h (0 Bft) O-NO 61 0 min 0,000 mm 0,0 UV-I 0 W/m 12,8 C 13,6 C 0,0 km/h (0 Bft) 0,00 %
17.09.2015 04:29 13,7 C 94 % 1002,6 hPa 0,0 l/m 0,0 km/h (0 Bft) O-NO 75 0 min 0,000 mm 0,0 UV-I 0 W/m 12,8 C 13,7 C 0,0 km/h (0 Bft) 0,00 %
17.09.2015 04:34 13,8 C 93 % 1002,5 hPa 0,0 l/m 0,0 km/h (0 Bft) O-NO 68 0 min 0,000 mm 0,0 UV-I 0 W/m 12,7 C 13,8 C 0,0 km/h (0 Bft) 0,00 %
17.09.2015 04:39 13,9 C 92 % 1002,7 hPa 0,0 l/m 0,0 km/h (0 Bft) O 84 0 min 0,000 mm 0,0 UV-I 0 W/m 12,6 C 13,9 C 0,0 km/h (0 Bft) 0,00 %
17.09.2015 04:44 13,9 C 92 % 1002,7 hPa 0,0 l/m 0,0 km/h (0 Bft) O-NO 73 0 min 0,000 mm 0,0 UV-I 0 W/m 12,6 C 13,9 C 0,0 km/h (0 Bft) 0,00 %
17.09.2015 04:49 13,8 C 92 % 1002,6 hPa 0,0 l/m 0,0 km/h (0 Bft) O-NO 75 0 min 0,000 mm 0,0 UV-I 0 W/m 12,5 C 13,8 C 0,0 km/h (0 Bft) 0,00 %
17.09.2015 04:54 13,7 C 92 % 1002,9 hPa 0,0 l/m 0,0 km/h (0 Bft) O-NO 63 0 min 0,000 mm 0,0 UV-I 0 W/m 12,4 C 13,7 C 0,0 km/h (0 Bft) 0,00 %
17.09.2015 04:59 13,7 C 92 % 1002,8 hPa 0,0 l/m 0,0 km/h (0 Bft) NO 54 0 min 0,000 mm 0,0 UV-I 0 W/m 12,4 C 13,7 C 0,0 km/h (0 Bft) 0,00 %
17.09.2015 05:04 13,7 C 91 % 1002,6 hPa 0,0 l/m 0,0 km/h (0 Bft) O-NO 69 0 min 0,000 mm 0,0 UV-I 0 W/m 12,3 C 13,7 C 0,0 km/h (0 Bft) 0,00 %
17.09.2015 05:09 13,6 C 91 % 1002,6 hPa 0,0 l/m 0,0 km/h (0 Bft) O-NO 72 0 min 0,000 mm 0,0 UV-I 0 W/m 12,2 C 13,6 C 0,0 km/h (0 Bft) 0,00 %
17.09.2015 05:14 13,4 C 92 % 1002,8 hPa 0,0 l/m 0,0 km/h (0 Bft) O-NO 72 0 min 0,000 mm 0,0 UV-I 0 W/m 12,1 C 13,4 C 0,0 km/h (0 Bft) 0,00 %
17.09.2015 05:19 13,4 C 92 % 1002,7 hPa 0,0 l/m 0,0 km/h (0 Bft) O-NO 72 0 min 0,000 mm 0,0 UV-I 0 W/m 12,1 C 13,4 C 0,0 km/h (0 Bft) 0,00 %
17.09.2015 05:24 13,5 C 91 % 1002,7 hPa 0,0 l/m 0,0 km/h (0 Bft) O 79 0 min 0,000 mm 0,0 UV-I 0 W/m 12,1 C 13,5 C 0,0 km/h (0 Bft) 0,00 %
17.09.2015 05:29 13,6 C 91 % 1002,6 hPa 0,0 l/m 0,0 km/h (0 Bft) O-NO 64 0 min 0,000 mm 0,0 UV-I 0 W/m 12,2 C 13,6 C 0,0 km/h (0 Bft) 0,00 %
17.09.2015 05:34 13,6 C 91 % 1002,7 hPa 0,0 l/m 0,0 km/h (0 Bft) O-NO 64 0 min 0,000 mm 0,0 UV-I 0 W/m 12,2 C 13,6 C 0,0 km/h (0 Bft) 0,00 %
17.09.2015 05:39 13,6 C 90 % 1002,7 hPa 0,0 l/m 0,0 km/h (0 Bft) O-NO 64 0 min 0,000 mm 0,0 UV-I 0 W/m 12,0 C 13,6 C 0,0 km/h (0 Bft) 0,00 %
17.09.2015 05:44 13,4 C 90 % 1002,8 hPa 0,0 l/m 0,0 km/h (0 Bft) O-NO 66 0 min 0,000 mm 0,0 UV-I 0 W/m 11,8 C 13,4 C 0,0 km/h (0 Bft) 0,00 %
17.09.2015 05:49 13,3 C 91 % 1002,8 hPa 0,0 l/m 0,0 km/h (0 Bft) O-NO 67 0 min 0,000 mm 0,0 UV-I 0 W/m 11,9 C 13,3 C 0,0 km/h (0 Bft) 0,00 %
17.09.2015 05:54 13,4 C 90 % 1002,7 hPa 0,0 l/m 0,0 km/h (0 Bft) O 91 0 min 0,000 mm 0,0 UV-I 0 W/m 11,8 C 13,4 C 0,0 km/h (0 Bft) 0,00 %
17.09.2015 05:59 13,6 C 90 % 1002,8 hPa 0,0 l/m 0,0 km/h (0 Bft) O-NO 76 0 min 0,000 mm 0,0 UV-I 0 W/m 12,0 C 13,6 C 0,0 km/h (0 Bft) 0,00 %
17.09.2015 06:04 13,7 C 89 % 1002,8 hPa 0,0 l/m 0,0 km/h (0 Bft) O-NO 66 0 min 0,000 mm 0,0 UV-I 0 W/m 11,9 C 13,7 C 0,0 km/h (0 Bft) 0,00 %
17.09.2015 06:09 13,7 C 88 % 1002,7 hPa 0,0 l/m 0,0 km/h (0 Bft) O-NO 69 0 min 0,000 mm 0,0 UV-I 0 W/m 11,7 C 13,7 C 0,0 km/h (0 Bft) 0,00 %
17.09.2015 06:14 13,7 C 88 % 1002,8 hPa 0,0 l/m 0,0 km/h (0 Bft) O-NO 72 0 min 0,000 mm 0,0 UV-I 0 W/m 11,7 C 13,7 C 0,0 km/h (0 Bft) 0,00 %
17.09.2015 06:19 13,6 C 88 % 1002,8 hPa 0,0 l/m 0,0 km/h (0 Bft) O 79 0 min 0,000 mm 0,0 UV-I 0 W/m 11,6 C 13,6 C 0,0 km/h (0 Bft) 0,00 %
17.09.2015 06:24 13,5 C 88 % 1002,9 hPa 0,0 l/m 0,0 km/h (0 Bft) O-NO 73 0 min 0,000 mm 0,0 UV-I 0 W/m 11,6 C 13,5 C 0,0 km/h (0 Bft) 0,00 %
17.09.2015 06:29 13,3 C 89 % 1002,8 hPa 0,0 l/m 0,0 km/h (0 Bft) O-NO 73 0 min 0,000 mm 0,0 UV-I 0 W/m 11,5 C 13,3 C 0,0 km/h (0 Bft) 0,00 %
17.09.2015 06:34 13,0 C 89 % 1002,8 hPa 0,0 l/m 0,0 km/h (0 Bft) O-NO 66 0 min 0,000 mm 0,0 UV-I 0 W/m 11,2 C 13,0 C 0,0 km/h (0 Bft) 0,00 %
17.09.2015 06:39 12,6 C 90 % 1002,9 hPa 0,0 l/m 0,0 km/h (0 Bft) O 81 0 min 0,000 mm 0,0 UV-I 0 W/m 11,0 C 12,6 C 0,0 km/h (0 Bft) 0,00 %
17.09.2015 06:44 12,4 C 91 % 1003,0 hPa 0,0 l/m 0,0 km/h (0 Bft) O 79 0 min 0,000 mm 0,0 UV-I 0 W/m 11,0 C 12,4 C 0,0 km/h (0 Bft) 0,00 %
17.09.2015 06:49 12,3 C 92 % 1003,0 hPa 0,0 l/m 0,0 km/h (0 Bft) O 81 0 min 0,000 mm 0,0 UV-I 4 W/m 11,0 C 12,3 C 0,0 km/h (0 Bft) 0,00 %
17.09.2015 06:54 12,1 C 92 % 1003,1 hPa 0,0 l/m 0,0 km/h (0 Bft) O-NO 78 0 min 0,000 mm 0,0 UV-I 10 W/m 10,8 C 12,1 C 0,0 km/h (0 Bft) 0,00 %
17.09.2015 06:59 12,0 C 93 % 1003,0 hPa 0,0 l/m 0,0 km/h (0 Bft) O 100 5 min 0,000 mm 0,0 UV-I 19 W/m 10,9 C 12,0 C 0,0 km/h (0 Bft) 0,00 %
17.09.2015 07:04 12,0 C 93 % 1002,9 hPa 0,0 l/m 0,0 km/h (0 Bft) O 85 0 min 0,000 mm 0,0 UV-I 25 W/m 10,9 C 12,0 C 0,0 km/h (0 Bft) 0,00 %
17.09.2015 07:09 12,0 C 93 % 1003,2 hPa 0,0 l/m 0,0 km/h (0 Bft) O-NO 70 0 min 0,000 mm 0,0 UV-I 34 W/m 10,9 C 12,0 C 0,0 km/h (0 Bft) 0,00 %
17.09.2015 07:14 12,2 C 93 % 1003,2 hPa 0,0 l/m 0,0 km/h (0 Bft) O 99 5 min 0,000 mm 0,0 UV-I 66 W/m 11,1 C 12,2 C 0,0 km/h (0 Bft) 0,00 %
17.09.2015 07:19 12,4 C 93 % 1003,3 hPa 0,0 l/m 0,0 km/h (0 Bft) NO 48 5 min 0,000 mm 0,0 UV-I 56 W/m 11,3 C 12,4 C 0,0 km/h (0 Bft) 0,00 %
17.09.2015 07:24 12,8 C 92 % 1003,3 hPa 0,0 l/m 0,0 km/h (0 Bft) O-NO 70 5 min 0,000 mm 0,0 UV-I 89 W/m 11,5 C 12,8 C 0,0 km/h (0 Bft) 0,00 %
17.09.2015 07:29 13,3 C 91 % 1003,3 hPa 0,0 l/m 0,0 km/h (0 Bft) O-NO 70 5 min 0,000 mm 0,0 UV-I 90 W/m 11,9 C 13,3 C 0,0 km/h (0 Bft) 0,00 %
17.09.2015 07:34 13,8 C 88 % 1003,3 hPa 0,0 l/m 0,0 km/h (0 Bft) O-NO 73 5 min 0,000 mm 0,0 UV-I 100 W/m 11,8 C 13,8 C 0,0 km/h (0 Bft) 0,00 %
17.09.2015 07:39 14,2 C 85 % 1003,0 hPa 0,0 l/m 0,0 km/h (0 Bft) O-NO 71 5 min 0,000 mm 0,0 UV-I 110 W/m 11,7 C 14,2 C 0,0 km/h (0 Bft) 0,00 %
17.09.2015 07:44 14,7 C 82 % 1003,0 hPa 0,0 l/m 0,0 km/h (0 Bft) O-NO 67 5 min 0,000 mm 0,0 UV-I 120 W/m 11,7 C 14,7 C 0,0 km/h (0 Bft) 0,00 %
17.09.2015 07:49 15,4 C 80 % 1003,2 hPa 0,0 l/m 0,0 km/h (0 Bft) O-NO 59 5 min 0,000 mm 0,0 UV-I 130 W/m 12,0 C 15,4 C 0,0 km/h (0 Bft) 0,00 %
17.09.2015 07:54 16,0 C 78 % 1003,1 hPa 0,0 l/m 0,0 km/h (0 Bft) O-NO 66 5 min 0,000 mm 0,0 UV-I 150 W/m 12,2 C 16,0 C 0,0 km/h (0 Bft) 0,00 %
17.09.2015 07:59 16,5 C 75 % 1003,2 hPa 0,0 l/m 0,0 km/h (0 Bft) O-NO 65 5 min 0,000 mm 0,0 UV-I 160 W/m 12,1 C 16,5 C 0,0 km/h (0 Bft) 0,00 %
17.09.2015 08:04 17,0 C 72 % 1003,0 hPa 0,0 l/m 0,0 km/h (0 Bft) O-NO 70 5 min 0,000 mm 1,0 UV-I 175 W/m 11,9 C 17,0 C 0,0 km/h (0 Bft) 0,00 %
17.09.2015 08:09 17,4 C 71 % 1003,1 hPa 0,0 l/m 0,0 km/h (0 Bft) O-NO 64 5 min 0,000 mm 1,0 UV-I 190 W/m 12,1 C 17,4 C 0,0 km/h (0 Bft) 0,00 %
17.09.2015 08:14 17,8 C 69 % 1003,1 hPa 0,0 l/m 0,0 km/h (0 Bft) O-NO 62 5 min 0,000 mm 1,0 UV-I 198 W/m 12,0 C 17,8 C 0,0 km/h (0 Bft) 0,00 %
17.09.2015 08:19 18,0 C 69 % 1003,2 hPa 0,0 l/m 0,0 km/h (0 Bft) O-NO 66 5 min 0,000 mm 1,0 UV-I 211 W/m 12,2 C 18,0 C 0,0 km/h (0 Bft) 0,00 %
17.09.2015 08:24 18,3 C 66 % 1003,1 hPa 0,0 l/m 0,0 km/h (0 Bft) O-NO 73 5 min 0,000 mm 1,0 UV-I 222 W/m 11,8 C 18,3 C 0,0 km/h (0 Bft) 0,00 %
17.09.2015 08:29 18,7 C 64 % 1003,2 hPa 0,0 l/m 0,0 km/h (0 Bft) O-NO 77 5 min 0,000 mm 1,0 UV-I 210 W/m 11,7 C 18,7 C 0,0 km/h (0 Bft) 0,00 %
17.09.2015 08:34 19,0 C 64 % 1003,1 hPa 0,0 l/m 0,0 km/h (0 Bft) NO 48 5 min 0,000 mm 1,0 UV-I 200 W/m 12,0 C 19,0 C 0,0 km/h (0 Bft) 0,00 %
17.09.2015 08:39 19,1 C 64 % 1003,2 hPa 0,0 l/m 0,0 km/h (0 Bft) O-NO 68 5 min 0,000 mm 1,0 UV-I 205 W/m 12,1 C 19,1 C 0,0 km/h (0 Bft) 0,00 %
17.09.2015 08:44 19,4 C 66 % 1003,0 hPa 0,0 l/m 0,0 km/h (0 Bft) O-NO 68 5 min 0,000 mm 1,0 UV-I 209 W/m 12,9 C 19,4 C 0,0 km/h (0 Bft) 0,00 %
17.09.2015 08:49 19,7 C 64 % 1003,2 hPa 0,0 l/m 0,0 km/h (0 Bft) O-NO 58 5 min 0,000 mm 1,0 UV-I 223 W/m 12,7 C 19,7 C 0,0 km/h (0 Bft) 0,00 %
17.09.2015 08:54 19,8 C 64 % 1003,0 hPa 0,0 l/m 0,0 km/h (0 Bft) O-NO 64 5 min 0,000 mm 1,0 UV-I 223 W/m 12,8 C 19,8 C 0,0 km/h (0 Bft) 0,00 %
17.09.2015 08:59 19,8 C 62 % 1003,1 hPa 0,0 l/m 2,2 km/h (1 Bft) NO 48 5 min 0,000 mm 1,0 UV-I 234 W/m 12,3 C 19,8 C 4,0 km/h (1 Bft) 0,00 %
17.09.2015 09:04 20,0 C 61 % 1003,2 hPa 0,0 l/m 3,2 km/h (1 Bft) O-NO 76 5 min 0,000 mm 1,0 UV-I 240 W/m 12,2 C 20,0 C 4,0 km/h (1 Bft) 0,00 %
17.09.2015 09:09 20,2 C 59 % 1002,9 hPa 0,0 l/m 1,8 km/h (1 Bft) O 88 0 min 0,000 mm 1,0 UV-I 211 W/m 11,9 C 20,2 C 4,0 km/h (1 Bft) 0,00 %
17.09.2015 09:14 20,2 C 60 % 1003,3 hPa 0,0 l/m 2,2 km/h (1 Bft) SO 133 5 min 0,000 mm 1,0 UV-I 237 W/m 12,2 C 20,2 C 7,9 km/h (2 Bft) 0,00 %
17.09.2015 09:19 20,2 C 60 % 1002,8 hPa 0,0 l/m 2,9 km/h (1 Bft) SO 138 5 min 0,000 mm 1,0 UV-I 240 W/m 12,2 C 20,2 C 4,0 km/h (1 Bft) 0,00 %
17.09.2015 09:24 20,2 C 60 % 1003,0 hPa 0,0 l/m 1,8 km/h (1 Bft) O 80 5 min 0,000 mm 1,0 UV-I 245 W/m 12,2 C 20,2 C 4,0 km/h (1 Bft) 0,00 %
17.09.2015 09:29 20,2 C 61 % 1002,9 hPa 0,0 l/m 0,4 km/h (0 Bft) O-NO 76 5 min 0,000 mm 1,0 UV-I 244 W/m 12,4 C 20,2 C 4,0 km/h (1 Bft) 0,00 %
17.09.2015 09:34 20,4 C 61 % 1003,1 hPa 0,0 l/m 0,0 km/h (0 Bft) NO 43 5 min 0,000 mm 1,0 UV-I 255 W/m 12,6 C 20,4 C 0,0 km/h (0 Bft) 0,00 %
17.09.2015 09:39 20,6 C 60 % 1003,1 hPa 0,0 l/m 2,2 km/h (1 Bft) O-NO 63 5 min 0,000 mm 1,0 UV-I 255 W/m 12,6 C 20,6 C 4,0 km/h (1 Bft) 0,00 %
17.09.2015 09:44 20,7 C 61 % 1003,0 hPa 0,0 l/m 1,4 km/h (1 Bft) NO 39 5 min 0,000 mm 1,0 UV-I 266 W/m 12,9 C 20,7 C 4,0 km/h (1 Bft) 0,00 %
17.09.2015 09:49 20,7 C 60 % 1003,1 hPa 0,0 l/m 0,0 km/h (0 Bft) N-NO 27 0 min 0,000 mm 1,0 UV-I 245 W/m 12,7 C 20,7 C 0,0 km/h (0 Bft) 0,00 %
17.09.2015 09:54 20,9 C 56 % 1003,0 hPa 0,0 l/m 2,9 km/h (1 Bft) O 89 0 min 0,000 mm 1,0 UV-I 240 W/m 11,8 C 20,9 C 4,0 km/h (1 Bft) 0,00 %
17.09.2015 09:59 21,3 C 56 % 1002,7 hPa 0,0 l/m 1,8 km/h (1 Bft) NO 39 0 min 0,000 mm 1,0 UV-I 244 W/m 12,2 C 21,3 C 4,0 km/h (1 Bft) 0,00 %
17.09.2015 10:04 21,5 C 56 % 1002,8 hPa 0,0 l/m 1,4 km/h (1 Bft) N-NO 33 0 min 0,000 mm 1,0 UV-I 244 W/m 12,3 C 21,5 C 4,0 km/h (1 Bft) 0,00 %
17.09.2015 10:09 21,7 C 55 % 1002,9 hPa 0,0 l/m 4,3 km/h (1 Bft) O-NO 72 0 min 0,000 mm 1,0 UV-I 236 W/m 12,3 C 21,7 C 7,9 km/h (2 Bft) 0,00 %
17.09.2015 10:14 22,0 C 54 % 1003,3 hPa 0,0 l/m 0,4 km/h (0 Bft) NO 34 0 min 0,000 mm 1,0 UV-I 249 W/m 12,3 C 22,0 C 4,0 km/h (1 Bft) 0,00 %
17.09.2015 10:19 22,4 C 54 % 1003,0 hPa 0,0 l/m 1,4 km/h (1 Bft) O-NO 59 0 min 0,000 mm 1,0 UV-I 265 W/m 12,6 C 22,4 C 4,0 km/h (1 Bft) 0,00 %
17.09.2015 10:24 22,7 C 52 % 1003,0 hPa 0,0 l/m 1,4 km/h (1 Bft) O 80 0 min 0,000 mm 2,0 UV-I 278 W/m 12,3 C 22,7 C 4,0 km/h (1 Bft) 0,00 %
17.09.2015 10:29 23,1 C 52 % 1003,3 hPa 0,0 l/m 1,4 km/h (1 Bft) N-NO 22 0 min 0,000 mm 2,0 UV-I 292 W/m 12,7 C 23,1 C 4,0 km/h (1 Bft) 0,00 %
17.09.2015 10:34 23,4 C 52 % 1003,2 hPa 0,0 l/m 0,7 km/h (0 Bft) O 82 0 min 0,000 mm 2,0 UV-I 307 W/m 13,0 C 23,4 C 4,0 km/h (1 Bft) 0,00 %
17.09.2015 10:40 23,4 C 51 % 1002,9 hPa 0,0 l/m 3,2 km/h (1 Bft) O 90 6 min 0,000 mm 2,0 UV-I 322 W/m 12,7 C 23,4 C 7,9 km/h (2 Bft) 0,00 %
17.09.2015 10:45 23,5 C 48 % 1002,9 hPa 0,0 l/m 0,7 km/h (0 Bft) O-NO 74 5 min 0,000 mm 2,0 UV-I 324 W/m 11,8 C 23,5 C 4,0 km/h (1 Bft) 0,00 %
17.09.2015 10:50 23,8 C 49 % 1002,8 hPa 0,0 l/m 2,2 km/h (1 Bft) NO 51 5 min 0,000 mm 2,0 UV-I 357 W/m 12,4 C 23,8 C 4,0 km/h (1 Bft) 0,00 %
17.09.2015 10:55 24,1 C 47 % 1002,9 hPa 0,0 l/m 2,9 km/h (1 Bft) O 92 5 min 0,000 mm 2,0 UV-I 375 W/m 12,1 C 24,1 C 4,0 km/h (1 Bft) 0,00 %
17.09.2015 11:00 24,6 C 45 % 1002,9 hPa 0,0 l/m 0,0 km/h (0 Bft) O-NO 69 5 min 0,000 mm 2,0 UV-I 392 W/m 11,9 C 24,6 C 0,0 km/h (0 Bft) 0,00 %
17.09.2015 11:05 25,3 C 43 % 1002,8 hPa 0,0 l/m 0,0 km/h (0 Bft) O-NO 65 5 min 0,000 mm 2,0 UV-I 411 W/m 11,8 C 25,3 C 0,0 km/h (0 Bft) 0,00 %
17.09.2015 11:10 26,0 C 41 % 1002,8 hPa 0,0 l/m 0,0 km/h (0 Bft) O 82 5 min 0,000 mm 2,0 UV-I 433 W/m 11,7 C 26,0 C 0,0 km/h (0 Bft) 0,00 %
17.09.2015 11:15 26,5 C 38 % 1002,9 hPa 0,0 l/m 2,2 km/h (1 Bft) O-SO 105 5 min 0,000 mm 2,0 UV-I 447 W/m 11,0 C 26,5 C 4,0 km/h (1 Bft) 0,00 %
17.09.2015 11:20 26,5 C 41 % 1002,8 hPa 0,0 l/m 0,0 km/h (0 Bft) NO 41 5 min 0,000 mm 2,0 UV-I 460 W/m 12,2 C 26,5 C 0,0 km/h (0 Bft) 0,00 %
17.09.2015 11:25 26,3 C 41 % 1002,6 hPa 0,0 l/m 5,8 km/h (2 Bft) O-NO 70 5 min 0,000 mm 2,0 UV-I 473 W/m 12,0 C 26,3 C 7,9 km/h (2 Bft) 0,00 %
17.09.2015 11:30 26,2 C 41 % 1002,5 hPa 0,0 l/m 1,8 km/h (1 Bft) O-NO 62 5 min 0,000 mm 2,0 UV-I 493 W/m 11,9 C 26,2 C 4,0 km/h (1 Bft) 0,00 %
17.09.2015 11:35 26,4 C 40 % 1002,5 hPa 0,0 l/m 3,2 km/h (1 Bft) O-SO 109 5 min 0,000 mm 2,0 UV-I 515 W/m 11,7 C 26,4 C 7,9 km/h (2 Bft) 0,00 %
17.09.2015 11:40 26,7 C 40 % 1002,4 hPa 0,0 l/m 2,2 km/h (1 Bft) O-NO 66 5 min 0,000 mm 2,0 UV-I 535 W/m 12,0 C 26,7 C 4,0 km/h (1 Bft) 0,00 %
17.09.2015 11:45 27,3 C 36 % 1002,6 hPa 0,0 l/m 0,7 km/h (0 Bft) O 92 5 min 0,000 mm 2,0 UV-I 554 W/m 10,9 C 27,3 C 4,0 km/h (1 Bft) 0,00 %
17.09.2015 11:50 27,6 C 38 % 1002,4 hPa 0,0 l/m 7,2 km/h (2 Bft) O-NO 66 5 min 0,000 mm 2,0 UV-I 573 W/m 12,0 C 27,5 C 11,9 km/h (2 Bft) 0,00 %
17.09.2015 11:55 27,5 C 38 % 1002,4 hPa 0,0 l/m 5,4 km/h (1 Bft) O 94 5 min 0,000 mm 2,0 UV-I 589 W/m 11,9 C 27,5 C 7,9 km/h (2 Bft) 0,00 %
17.09.2015 12:00 27,3 C 39 % 1002,3 hPa 0,0 l/m 4,3 km/h (1 Bft) N-NO 28 5 min 0,000 mm 2,0 UV-I 609 W/m 12,1 C 27,3 C 7,9 km/h (2 Bft) 0,00 %
17.09.2015 12:05 27,4 C 38 % 1002,2 hPa 0,0 l/m 3,2 km/h (1 Bft) O-NO 70 5 min 0,000 mm 2,0 UV-I 627 W/m 11,8 C 27,4 C 7,9 km/h (2 Bft) 0,00 %
17.09.2015 12:10 27,5 C 40 % 1001,9 hPa 0,0 l/m 4,0 km/h (1 Bft) O-SO 112 5 min 0,000 mm 2,0 UV-I 651 W/m 12,7 C 27,5 C 7,9 km/h (2 Bft) 0,00 %
17.09.2015 12:15 27,6 C 40 % 1001,9 hPa 0,0 l/m 2,2 km/h (1 Bft) O-NO 66 5 min 0,000 mm 2,0 UV-I 651 W/m 12,8 C 27,6 C 4,0 km/h (1 Bft) 0,00 %
17.09.2015 12:20 27,7 C 42 % 1001,7 hPa 0,0 l/m 9,0 km/h (2 Bft) O-NO 71 5 min 0,000 mm 2,0 UV-I 677 W/m 13,6 C 27,3 C 11,9 km/h (2 Bft) 0,00 %
17.09.2015 12:25 27,8 C 38 % 1001,8 hPa 0,0 l/m 6,8 km/h (2 Bft) SO 129 5 min 0,000 mm 2,0 UV-I 675 W/m 12,2 C 27,7 C 7,9 km/h (2 Bft) 0,00 %
17.09.2015 12:30 28,0 C 39 % 1001,7 hPa 0,0 l/m 3,2 km/h (1 Bft) O-NO 58 5 min 0,000 mm 2,0 UV-I 685 W/m 12,7 C 28,0 C 4,0 km/h (1 Bft) 0,00 %
17.09.2015 12:35 28,2 C 38 % 1001,8 hPa 0,0 l/m 5,4 km/h (1 Bft) O-SO 107 5 min 0,000 mm 2,0 UV-I 714 W/m 12,5 C 28,2 C 7,9 km/h (2 Bft) 0,00 %
17.09.2015 12:40 28,4 C 39 % 1001,8 hPa 0,0 l/m 8,3 km/h (2 Bft) O-NO 59 5 min 0,000 mm 2,0 UV-I 711 W/m 13,1 C 28,1 C 15,8 km/h (3 Bft) 0,00 %
17.09.2015 12:45 28,7 C 38 % 1001,6 hPa 0,0 l/m 8,3 km/h (2 Bft) SO 124 5 min 0,000 mm 2,0 UV-I 709 W/m 13,0 C 28,4 C 11,9 km/h (2 Bft) 0,00 %
17.09.2015 12:50 29,0 C 36 % 1001,5 hPa 0,0 l/m 7,9 km/h (2 Bft) O-SO 109 5 min 0,000 mm 2,0 UV-I 683 W/m 12,4 C 28,8 C 11,9 km/h (2 Bft) 0,00 %
17.09.2015 12:55 29,1 C 33 % 1001,2 hPa 0,0 l/m 3,2 km/h (1 Bft) O 85 5 min 0,000 mm 3,0 UV-I 754 W/m 11,2 C 29,1 C 7,9 km/h (2 Bft) 0,00 %
17.09.2015 13:00 29,2 C 32 % 1001,4 hPa 0,0 l/m 9,4 km/h (2 Bft) SO 127 5 min 0,000 mm 2,0 UV-I 550 W/m 10,8 C 28,9 C 11,9 km/h (2 Bft) 0,00 %
17.09.2015 13:05 29,3 C 36 % 1001,5 hPa 0,0 l/m 8,3 km/h (2 Bft) O 98 0 min 0,000 mm 2,0 UV-I 380 W/m 12,7 C 29,1 C 11,9 km/h (2 Bft) 0,00 %
17.09.2015 13:10 29,0 C 38 % 1001,5 hPa 0,0 l/m 0,4 km/h (0 Bft) O-NO 71 0 min 0,000 mm 1,0 UV-I 214 W/m 13,2 C 29,0 C 4,0 km/h (1 Bft) 0,00 %
17.09.2015 13:15 28,6 C 39 % 1001,6 hPa 0,0 l/m 3,2 km/h (1 Bft) O-NO 71 0 min 0,000 mm 1,0 UV-I 191 W/m 13,3 C 28,6 C 7,9 km/h (2 Bft) 0,00 %
17.09.2015 13:20 28,2 C 41 % 1001,7 hPa 0,0 l/m 2,2 km/h (1 Bft) NO 56 0 min 0,000 mm 1,0 UV-I 193 W/m 13,7 C 28,2 C 7,9 km/h (2 Bft) 0,00 %
17.09.2015 13:25 27,9 C 42 % 1001,6 hPa 0,0 l/m 5,4 km/h (1 Bft) O 97 0 min 0,000 mm 1,0 UV-I 210 W/m 13,8 C 27,9 C 7,9 km/h (2 Bft) 0,00 %
17.09.2015 13:30 27,6 C 42 % 1001,3 hPa 0,0 l/m 5,4 km/h (1 Bft) O 96 0 min 0,000 mm 1,0 UV-I 226 W/m 13,5 C 27,6 C 7,9 km/h (2 Bft) 0,00 %
17.09.2015 13:35 27,3 C 43 % 1001,4 hPa 0,0 l/m 5,4 km/h (1 Bft) O 93 0 min 0,000 mm 1,0 UV-I 244 W/m 13,6 C 27,3 C 7,9 km/h (2 Bft) 0,00 %
17.09.2015 13:40 27,3 C 43 % 1001,4 hPa 0,0 l/m 3,2 km/h (1 Bft) O-SO 109 0 min 0,000 mm 1,0 UV-I 256 W/m 13,6 C 27,3 C 4,0 km/h (1 Bft) 0,00 %
17.09.2015 13:45 27,3 C 43 % 1001,2 hPa 0,0 l/m 5,8 km/h (2 Bft) O 92 0 min 0,000 mm 1,0 UV-I 251 W/m 13,6 C 27,3 C 7,9 km/h (2 Bft) 0,00 %
17.09.2015 13:50 27,3 C 44 % 1001,2 hPa 0,0 l/m 3,2 km/h (1 Bft) O 80 0 min 0,000 mm 1,0 UV-I 240 W/m 14,0 C 27,3 C 7,9 km/h (2 Bft) 0,00 %
17.09.2015 13:55 27,2 C 43 % 1001,1 hPa 0,0 l/m 4,7 km/h (1 Bft) O-SO 121 0 min 0,000 mm 1,0 UV-I 244 W/m 13,5 C 27,2 C 7,9 km/h (2 Bft) 0,00 %
17.09.2015 14:00 27,1 C 44 % 1001,0 hPa 0,0 l/m 0,4 km/h (0 Bft) O-NO 61 0 min 0,000 mm 1,0 UV-I 255 W/m 13,8 C 27,1 C 4,0 km/h (1 Bft) 0,00 %
17.09.2015 14:05 27,0 C 43 % 1001,0 hPa 0,0 l/m 10,4 km/h (2 Bft) O-NO 58 0 min 0,000 mm 1,0 UV-I 243 W/m 13,3 C 26,3 C 11,9 km/h (2 Bft) 0,00 %
17.09.2015 14:10 26,8 C 43 % 1000,9 hPa 0,0 l/m 0,7 km/h (0 Bft) O 97 0 min 0,000 mm 1,0 UV-I 244 W/m 13,2 C 26,8 C 4,0 km/h (1 Bft) 0,00 %
17.09.2015 14:15 26,8 C 43 % 1000,9 hPa 0,0 l/m 0,0 km/h (0 Bft) NO 50 0 min 0,000 mm 1,0 UV-I 254 W/m 13,2 C 26,8 C 0,0 km/h (0 Bft) 0,00 %
17.09.2015 14:20 27,0 C 43 % 1000,9 hPa 0,0 l/m 3,2 km/h (1 Bft) O-SO 102 0 min 0,000 mm 1,0 UV-I 256 W/m 13,3 C 27,0 C 4,0 km/h (1 Bft) 0,00 %
17.09.2015 14:25 27,2 C 43 % 1001,0 hPa 0,0 l/m 0,0 km/h (0 Bft) O-NO 64 0 min 0,000 mm 1,0 UV-I 274 W/m 13,5 C 27,2 C 0,0 km/h (0 Bft) 0,00 %
17.09.2015 14:30 27,4 C 43 % 1000,8 hPa 0,0 l/m 4,7 km/h (1 Bft) O 100 0 min 0,000 mm 1,0 UV-I 306 W/m 13,7 C 27,4 C 7,9 km/h (2 Bft) 0,00 %
17.09.2015 14:35 27,5 C 42 % 1000,7 hPa 0,0 l/m 1,4 km/h (1 Bft) O 86 5 min 0,000 mm 1,0 UV-I 405 W/m 13,4 C 27,5 C 4,0 km/h (1 Bft) 0,00 %
17.09.2015 14:40 27,6 C 42 % 1000,8 hPa 0,0 l/m 1,8 km/h (1 Bft) O 80 5 min 0,000 mm 1,0 UV-I 488 W/m 13,5 C 27,6 C 4,0 km/h (1 Bft) 0,00 %
17.09.2015 14:45 27,9 C 41 % 1000,7 hPa 0,0 l/m 7,2 km/h (2 Bft) O 87 5 min 0,000 mm 1,0 UV-I 513 W/m 13,4 C 27,8 C 11,9 km/h (2 Bft) 0,00 %
17.09.2015 14:50 28,2 C 41 % 1000,5 hPa 0,0 l/m 0,7 km/h (0 Bft) O-NO 75 5 min 0,000 mm 1,0 UV-I 542 W/m 13,7 C 28,2 C 4,0 km/h (1 Bft) 0,00 %
17.09.2015 14:55 28,6 C 39 % 1000,6 hPa 0,0 l/m 9,7 km/h (2 Bft) SO 139 5 min 0,000 mm 1,0 UV-I 563 W/m 13,3 C 28,2 C 11,9 km/h (2 Bft) 0,00 %
17.09.2015 15:00 28,8 C 36 % 1000,4 hPa 0,0 l/m 4,7 km/h (1 Bft) O 92 5 min 0,000 mm 1,0 UV-I 550 W/m 12,2 C 28,8 C 7,9 km/h (2 Bft) 0,00 %
17.09.2015 15:05 29,0 C 36 % 1000,6 hPa 0,0 l/m 4,0 km/h (1 Bft) SO 124 5 min 0,000 mm 1,0 UV-I 512 W/m 12,4 C 29,0 C 7,9 km/h (2 Bft) 0,00 %
17.09.2015 15:10 29,1 C 35 % 1000,3 hPa 0,0 l/m 2,9 km/h (1 Bft) O 96 5 min 0,000 mm 1,0 UV-I 449 W/m 12,1 C 29,1 C 4,0 km/h (1 Bft) 0,00 %
17.09.2015 15:15 29,3 C 34 % 1000,2 hPa 0,0 l/m 4,3 km/h (1 Bft) O-SO 123 5 min 0,000 mm 1,0 UV-I 454 W/m 11,8 C 29,3 C 7,9 km/h (2 Bft) 0,00 %
17.09.2015 15:20 29,3 C 33 % 1000,4 hPa 0,0 l/m 6,5 km/h (2 Bft) NO 56 5 min 0,000 mm 1,0 UV-I 456 W/m 11,3 C 29,3 C 11,9 km/h (2 Bft) 0,00 %
17.09.2015 15:25 29,2 C 34 % 1000,3 hPa 0,0 l/m 1,4 km/h (1 Bft) O-NO 58 5 min 0,000 mm 1,0 UV-I 447 W/m 11,7 C 29,2 C 4,0 km/h (1 Bft) 0,00 %
17.09.2015 15:30 29,2 C 35 % 1000,3 hPa 0,0 l/m 5,4 km/h (1 Bft) O-NO 67 5 min 0,000 mm 1,0 UV-I 427 W/m 12,1 C 29,2 C 7,9 km/h (2 Bft) 0,00 %
17.09.2015 15:35 29,1 C 37 % 1000,4 hPa 0,0 l/m 7,9 km/h (2 Bft) O 95 5 min 0,000 mm 1,0 UV-I 449 W/m 12,9 C 28,9 C 11,9 km/h (2 Bft) 0,00 %
17.09.2015 15:40 29,1 C 36 % 1000,3 hPa 0,0 l/m 0,0 km/h (0 Bft) O-SO 111 5 min 0,000 mm 1,0 UV-I 432 W/m 12,5 C 29,1 C 0,0 km/h (0 Bft) 0,00 %
17.09.2015 15:45 29,1 C 36 % 1000,3 hPa 0,0 l/m 2,9 km/h (1 Bft) O-SO 118 5 min 0,000 mm 1,0 UV-I 373 W/m 12,5 C 29,1 C 4,0 km/h (1 Bft) 0,00 %
17.09.2015 15:50 29,3 C 35 % 1000,3 hPa 0,0 l/m 1,8 km/h (1 Bft) O-NO 77 5 min 0,000 mm 1,0 UV-I 308 W/m 12,2 C 29,3 C 4,0 km/h (1 Bft) 0,00 %
17.09.2015 15:55 29,4 C 34 % 1000,2 hPa 0,0 l/m 1,8 km/h (1 Bft) O-NO 66 5 min 0,000 mm 1,0 UV-I 409 W/m 11,9 C 29,4 C 4,0 km/h (1 Bft) 0,00 %
17.09.2015 16:00 29,5 C 35 % 1000,3 hPa 0,0 l/m 0,7 km/h (0 Bft) O 89 5 min 0,000 mm 1,0 UV-I 420 W/m 12,4 C 29,5 C 4,0 km/h (1 Bft) 0,00 %
17.09.2015 16:05 29,6 C 34 % 1000,3 hPa 0,0 l/m 0,7 km/h (0 Bft) O-SO 103 5 min 0,000 mm 1,0 UV-I 419 W/m 12,1 C 29,6 C 4,0 km/h (1 Bft) 0,00 %
17.09.2015 16:10 29,7 C 33 % 1000,2 hPa 0,0 l/m 0,0 km/h (0 Bft) O 91 5 min 0,000 mm 1,0 UV-I 401 W/m 11,7 C 29,7 C 0,0 km/h (0 Bft) 0,00 %
17.09.2015 16:15 29,9 C 32 % 1000,1 hPa 0,0 l/m 7,2 km/h (2 Bft) O 101 5 min 0,000 mm 1,0 UV-I 398 W/m 11,4 C 29,8 C 7,9 km/h (2 Bft) 0,00 %
17.09.2015 16:20 30,0 C 33 % 999,9 hPa 0,0 l/m 0,4 km/h (0 Bft) O-SO 114 5 min 0,000 mm 1,0 UV-I 374 W/m 11,9 C 30,0 C 4,0 km/h (1 Bft) 0,00 %
17.09.2015 16:25 30,0 C 33 % 999,9 hPa 0,0 l/m 0,0 km/h (0 Bft) O 88 5 min 0,000 mm 1,0 UV-I 349 W/m 11,9 C 30,0 C 0,0 km/h (0 Bft) 0,00 %
17.09.2015 16:30 29,9 C 33 % 1000,1 hPa 0,0 l/m 4,7 km/h (1 Bft) O-NO 77 5 min 0,000 mm 1,0 UV-I 325 W/m 11,9 C 29,9 C 7,9 km/h (2 Bft) 0,00 %
17.09.2015 16:35 29,8 C 33 % 999,9 hPa 0,0 l/m 1,8 km/h (1 Bft) O-SO 102 5 min 0,000 mm 1,0 UV-I 283 W/m 11,8 C 29,8 C 4,0 km/h (1 Bft) 0,00 %
17.09.2015 16:40 29,7 C 33 % 999,9 hPa 0,0 l/m 0,7 km/h (0 Bft) O-NO 72 5 min 0,000 mm 1,0 UV-I 263 W/m 11,7 C 29,7 C 4,0 km/h (1 Bft) 0,00 %
17.09.2015 16:45 29,7 C 34 % 1000,1 hPa 0,0 l/m 0,0 km/h (0 Bft) O 100 5 min 0,000 mm 1,0 UV-I 241 W/m 12,1 C 29,7 C 0,0 km/h (0 Bft) 0,00 %
17.09.2015 16:50 29,6 C 34 % 999,8 hPa 0,0 l/m 0,0 km/h (0 Bft) O 93 5 min 0,000 mm 1,0 UV-I 217 W/m 12,1 C 29,6 C 0,0 km/h (0 Bft) 0,00 %
17.09.2015 16:55 29,5 C 34 % 1000,1 hPa 0,0 l/m 0,4 km/h (0 Bft) O 97 0 min 0,000 mm 1,0 UV-I 195 W/m 12,0 C 29,5 C 4,0 km/h (1 Bft) 0,00 %
17.09.2015 17:00 29,5 C 35 % 1000,1 hPa 0,0 l/m 0,0 km/h (0 Bft) O-NO 59 0 min 0,000 mm 1,0 UV-I 183 W/m 12,4 C 29,5 C 0,0 km/h (0 Bft) 0,00 %
17.09.2015 17:05 29,4 C 35 % 1000,1 hPa 0,0 l/m 0,7 km/h (0 Bft) O 90 5 min 0,000 mm 1,0 UV-I 215 W/m 12,3 C 29,4 C 4,0 km/h (1 Bft) 0,00 %
17.09.2015 17:10 29,4 C 35 % 1000,4 hPa 0,0 l/m 0,0 km/h (0 Bft) O 84 5 min 0,000 mm 1,0 UV-I 200 W/m 12,3 C 29,4 C 0,0 km/h (0 Bft) 0,00 %
17.09.2015 17:15 29,4 C 35 % 1000,4 hPa 0,0 l/m 0,0 km/h (0 Bft) O-NO 69 5 min 0,000 mm 1,0 UV-I 198 W/m 12,3 C 29,4 C 0,0 km/h (0 Bft) 0,00 %
17.09.2015 17:20 29,4 C 36 % 1000,6 hPa 0,0 l/m 0,0 km/h (0 Bft) O-NO 73 5 min 0,000 mm 1,0 UV-I 210 W/m 12,7 C 29,4 C 0,0 km/h (0 Bft) 0,00 %
17.09.2015 17:25 29,4 C 41 % 1001,2 hPa 0,0 l/m 1,4 km/h (1 Bft) O-SO 118 5 min 0,000 mm 1,0 UV-I 182 W/m 14,7 C 29,4 C 4,0 km/h (1 Bft) 0,00 %
17.09.2015 17:30 29,1 C 43 % 1002,2 hPa 0,0 l/m 11,5 km/h (2 Bft) SW 228 5 min 0,000 mm 1,0 UV-I 166 W/m 15,2 C 28,6 C 15,8 km/h (3 Bft) 0,00 %
17.09.2015 17:35 27,7 C 46 % 1003,1 hPa 0,0 l/m 14,8 km/h (3 Bft) O-SO 113 5 min 0,000 mm 1,0 UV-I 152 W/m 15,0 C 26,6 C 19,8 km/h (3 Bft) 0,00 %
17.09.2015 17:40 25,9 C 49 % 1003,6 hPa 0,0 l/m 17,3 km/h (3 Bft) SW 224 5 min 0,000 mm 0,0 UV-I 139 W/m 14,4 C 24,1 C 36,0 km/h (5 Bft) 0,00 %
17.09.2015 17:45 24,5 C 51 % 1004,3 hPa 0,0 l/m 11,9 km/h (2 Bft) O-SO 103 5 min 0,000 mm 0,0 UV-I 161 W/m 13,7 C 23,2 C 19,8 km/h (3 Bft) 0,00 %
17.09.2015 17:50 23,7 C 52 % 1004,8 hPa 0,0 l/m 9,4 km/h (2 Bft) N-NW 341 5 min 0,000 mm 0,0 UV-I 130 W/m 13,2 C 22,9 C 11,9 km/h (2 Bft) 0,00 %
17.09.2015 17:55 23,2 C 53 % 1005,6 hPa 0,0 l/m 14,4 km/h (3 Bft) S-SW 197 0 min 0,000 mm 0,0 UV-I 108 W/m 13,1 C 21,2 C 19,8 km/h (3 Bft) 0,00 %
17.09.2015 18:00 22,7 C 52 % 1006,1 hPa 0,0 l/m 14,0 km/h (3 Bft) S-SW 208 5 min 0,000 mm 0,0 UV-I 142 W/m 12,3 C 20,7 C 19,8 km/h (3 Bft) 0,00 %
17.09.2015 18:05 22,3 C 52 % 1006,4 hPa 0,0 l/m 1,8 km/h (1 Bft) S-SO 162 5 min 0,000 mm 0,0 UV-I 183 W/m 12,0 C 22,3 C 7,9 km/h (2 Bft) 0,00 %
17.09.2015 18:10 22,1 C 52 % 1006,8 hPa 0,0 l/m 7,9 km/h (2 Bft) SW 216 5 min 0,000 mm 0,0 UV-I 168 W/m 11,8 C 21,6 C 11,9 km/h (2 Bft) 0,00 %
17.09.2015 18:15 21,9 C 50 % 1007,1 hPa 0,0 l/m 2,9 km/h (1 Bft) NO 36 5 min 0,000 mm 0,0 UV-I 266 W/m 11,0 C 21,9 C 7,9 km/h (2 Bft) 0,00 %
17.09.2015 18:20 21,6 C 49 % 1007,5 hPa 0,0 l/m 11,9 km/h (2 Bft) S-SW 200 5 min 0,000 mm 0,0 UV-I 222 W/m 10,4 C 19,9 C 15,8 km/h (3 Bft) 0,00 %
17.09.2015 18:25 21,4 C 48 % 1008,0 hPa 0,0 l/m 23,0 km/h (4 Bft) W 272 5 min 0,000 mm 0,0 UV-I 211 W/m 9,9 C 17,6 C 32,0 km/h (5 Bft) 0,00 %
17.09.2015 18:30 21,2 C 50 % 1007,7 hPa 0,0 l/m 15,5 km/h (3 Bft) N-NO 18 5 min 0,000 mm 0,0 UV-I 129 W/m 10,4 C 18,6 C 28,1 km/h (4 Bft) 0,00 %
17.09.2015 18:35 21,0 C 50 % 1007,8 hPa 0,0 l/m 8,3 km/h (2 Bft) NW 321 5 min 0,000 mm 0,0 UV-I 86 W/m 10,2 C 20,3 C 11,9 km/h (2 Bft) 0,00 %
17.09.2015 18:40 20,7 C 50 % 1008,0 hPa 0,0 l/m 20,5 km/h (4 Bft) W-NW 296 5 min 0,000 mm 0,0 UV-I 69 W/m 9,9 C 17,0 C 36,0 km/h (5 Bft) 0,00 %
17.09.2015 18:45 20,5 C 51 % 1008,8 hPa 0,0 l/m 15,8 km/h (3 Bft) S 185 5 min 0,000 mm 0,0 UV-I 52 W/m 10,0 C 17,7 C 24,1 km/h (4 Bft) 0,00 %
17.09.2015 18:50 20,3 C 51 % 1008,7 hPa 0,0 l/m 4,0 km/h (1 Bft) S-SO 149 5 min 0,000 mm 0,0 UV-I 39 W/m 9,8 C 20,3 C 11,9 km/h (2 Bft) 0,00 %
17.09.2015 18:55 20,1 C 51 % 1009,3 hPa 0,0 l/m 19,1 km/h (3 Bft) NW 317 5 min 0,000 mm 0,0 UV-I 26 W/m 9,6 C 16,5 C 24,1 km/h (4 Bft) 0,00 %
17.09.2015 19:00 19,9 C 50 % 1009,5 hPa 0,0 l/m 11,9 km/h (2 Bft) W 277 0 min 0,000 mm 0,0 UV-I 9 W/m 9,2 C 17,9 C 19,8 km/h (3 Bft) 0,00 %
17.09.2015 19:05 19,7 C 50 % 1009,9 hPa 0,0 l/m 7,2 km/h (2 Bft) NO 44 0 min 0,000 mm 0,0 UV-I 0 W/m 9,0 C 19,4 C 15,8 km/h (3 Bft) 0,00 %
17.09.2015 19:10 19,6 C 51 % 1010,0 hPa 0,0 l/m 23,4 km/h (4 Bft) S-SW 198 0 min 0,000 mm 0,0 UV-I 0 W/m 9,2 C 15,1 C 40,0 km/h (6 Bft) 0,00 %
17.09.2015 19:15 19,5 C 51 % 1010,4 hPa 0,0 l/m 9,7 km/h (2 Bft) O 85 0 min 0,000 mm 0,0 UV-I 0 W/m 9,1 C 18,2 C 15,8 km/h (3 Bft) 0,00 %
17.09.2015 19:20 19,3 C 51 % 1010,9 hPa 0,0 l/m 9,4 km/h (2 Bft) O-SO 104 0 min 0,000 mm 0,0 UV-I 0 W/m 8,9 C 18,1 C 19,8 km/h (3 Bft) 0,00 %
17.09.2015 19:25 19,1 C 52 % 1011,0 hPa 0,0 l/m 12,2 km/h (2 Bft) S-SW 202 0 min 0,000 mm 0,0 UV-I 0 W/m 9,0 C 16,9 C 15,8 km/h (3 Bft) 0,00 %
17.09.2015 19:30 18,8 C 51 % 1011,3 hPa 0,0 l/m 14,8 km/h (3 Bft) S-SW 206 0 min 0,000 mm 0,0 UV-I 0 W/m 8,4 C 15,8 C 24,1 km/h (4 Bft) 0,00 %
17.09.2015 19:35 18,4 C 51 % 1011,1 hPa 0,0 l/m 19,8 km/h (3 Bft) S 180 0 min 0,000 mm 0,0 UV-I 0 W/m 8,1 C 14,2 C 32,0 km/h (5 Bft) 0,00 %
17.09.2015 19:40 18,2 C 51 % 1011,6 hPa 0,0 l/m 24,5 km/h (4 Bft) SW 215 0 min 0,000 mm 0,0 UV-I 0 W/m 7,9 C 13,0 C 40,0 km/h (6 Bft) 0,00 %
17.09.2015 19:45 18,0 C 52 % 1012,0 hPa 0,0 l/m 11,5 km/h (2 Bft) S-SW 192 0 min 0,000 mm 0,0 UV-I 0 W/m 8,0 C 15,9 C 15,8 km/h (3 Bft) 0,00 %
17.09.2015 19:50 17,8 C 52 % 1012,1 hPa 0,0 l/m 8,3 km/h (2 Bft) W-SW 252 0 min 0,000 mm 0,0 UV-I 0 W/m 7,8 C 16,9 C 11,9 km/h (2 Bft) 0,00 %
17.09.2015 19:55 17,7 C 53 % 1012,2 hPa 0,0 l/m 7,9 km/h (2 Bft) S-SW 209 0 min 0,000 mm 0,0 UV-I 0 W/m 8,0 C 17,0 C 11,9 km/h (2 Bft) 0,00 %
17.09.2015 20:00 17,7 C 52 % 1012,3 hPa 0,0 l/m 14,4 km/h (3 Bft) W-SW 238 0 min 0,000 mm 0,0 UV-I 0 W/m 7,7 C 14,6 C 19,8 km/h (3 Bft) 0,00 %
17.09.2015 20:05 17,5 C 52 % 1012,7 hPa 0,0 l/m 12,2 km/h (2 Bft) S 173 0 min 0,000 mm 0,0 UV-I 0 W/m 7,5 C 15,1 C 15,8 km/h (3 Bft) 0,00 %
17.09.2015 20:10 17,4 C 53 % 1012,7 hPa 0,0 l/m 9,0 km/h (2 Bft) W-SW 254 0 min 0,000 mm 0,0 UV-I 0 W/m 7,7 C 16,2 C 11,9 km/h (2 Bft) 0,00 %
17.09.2015 20:15 17,3 C 53 % 1012,9 hPa 0,0 l/m 2,9 km/h (1 Bft) S-SW 203 0 min 0,000 mm 0,0 UV-I 0 W/m 7,6 C 17,3 C 4,0 km/h (1 Bft) 0,00 %
17.09.2015 20:20 17,2 C 54 % 1013,2 hPa 0,0 l/m 6,8 km/h (2 Bft) S-SW 204 0 min 0,000 mm 0,0 UV-I 0 W/m 7,8 C 17,0 C 7,9 km/h (2 Bft) 0,00 %
17.09.2015 20:25 17,2 C 54 % 1013,6 hPa 0,0 l/m 8,3 km/h (2 Bft) W 264 0 min 0,000 mm 0,0 UV-I 0 W/m 7,8 C 16,3 C 11,9 km/h (2 Bft) 0,00 %
17.09.2015 20:30 17,1 C 55 % 1013,7 hPa 0,0 l/m 6,8 km/h (2 Bft) S 185 0 min 0,000 mm 0,0 UV-I 0 W/m 8,0 C 16,9 C 15,8 km/h (3 Bft) 0,00 %
17.09.2015 20:35 16,9 C 55 % 1013,9 hPa 0,0 l/m 12,2 km/h (2 Bft) S 186 0 min 0,000 mm 0,0 UV-I 0 W/m 7,8 C 14,4 C 15,8 km/h (3 Bft) 0,00 %
17.09.2015 20:40 16,8 C 55 % 1014,0 hPa 0,0 l/m 10,8 km/h (2 Bft) S 173 0 min 0,000 mm 0,0 UV-I 0 W/m 7,7 C 14,8 C 15,8 km/h (3 Bft) 0,00 %
17.09.2015 20:45 16,8 C 55 % 1014,1 hPa 0,0 l/m 7,9 km/h (2 Bft) S 182 0 min 0,000 mm 0,0 UV-I 0 W/m 7,7 C 16,0 C 11,9 km/h (2 Bft) 0,00 %
17.09.2015 20:50 16,7 C 56 % 1014,4 hPa 0,0 l/m 7,9 km/h (2 Bft) W-NW 290 0 min 0,000 mm 0,0 UV-I 0 W/m 7,9 C 15,9 C 11,9 km/h (2 Bft) 0,00 %
17.09.2015 20:55 16,7 C 57 % 1014,3 hPa 0,0 l/m 8,3 km/h (2 Bft) N-NW 330 0 min 0,000 mm 0,0 UV-I 0 W/m 8,1 C 15,7 C 11,9 km/h (2 Bft) 0,00 %
17.09.2015 21:00 16,6 C 57 % 1014,0 hPa 0,0 l/m 14,8 km/h (3 Bft) S-SW 201 0 min 0,000 mm 0,0 UV-I 0 W/m 8,0 C 13,2 C 19,8 km/h (3 Bft) 0,00 %
17.09.2015 21:05 16,5 C 57 % 1014,1 hPa 0,0 l/m 3,2 km/h (1 Bft) S-SW 204 0 min 0,000 mm 0,0 UV-I 0 W/m 8,0 C 16,5 C 7,9 km/h (2 Bft) 0,00 %
17.09.2015 21:10 16,4 C 58 % 1014,6 hPa 0,0 l/m 7,9 km/h (2 Bft) S 177 0 min 0,000 mm 0,0 UV-I 0 W/m 8,1 C 15,6 C 11,9 km/h (2 Bft) 0,00 %
17.09.2015 21:15 16,3 C 58 % 1014,6 hPa 0,0 l/m 5,8 km/h (2 Bft) S 186 0 min 0,000 mm 0,0 UV-I 0 W/m 8,0 C 16,3 C 7,9 km/h (2 Bft) 0,00 %
17.09.2015 21:20 16,2 C 58 % 1014,7 hPa 0,0 l/m 16,6 km/h (3 Bft) SW 223 0 min 0,000 mm 0,0 UV-I 0 W/m 7,9 C 12,2 C 19,8 km/h (3 Bft) 0,00 %
17.09.2015 21:25 16,2 C 59 % 1014,7 hPa 0,0 l/m 11,5 km/h (2 Bft) S-SW 200 0 min 0,000 mm 0,0 UV-I 0 W/m 8,2 C 13,8 C 15,8 km/h (3 Bft) 0,00 %
17.09.2015 21:30 16,1 C 59 % 1014,7 hPa 0,0 l/m 10,4 km/h (2 Bft) SW 232 0 min 0,000 mm 0,0 UV-I 0 W/m 8,1 C 14,2 C 11,9 km/h (2 Bft) 0,00 %
17.09.2015 21:35 16,1 C 59 % 1014,8 hPa 0,0 l/m 4,7 km/h (1 Bft) S 186 0 min 0,000 mm 0,0 UV-I 0 W/m 8,1 C 16,1 C 7,9 km/h (2 Bft) 0,00 %
17.09.2015 21:40 16,0 C 59 % 1014,6 hPa 0,0 l/m 2,9 km/h (1 Bft) S 182 0 min 0,000 mm 0,0 UV-I 0 W/m 8,0 C 16,0 C 4,0 km/h (1 Bft) 0,00 %
17.09.2015 21:45 16,0 C 60 % 1014,8 hPa 0,0 l/m 9,4 km/h (2 Bft) O-SO 122 0 min 0,000 mm 0,0 UV-I 0 W/m 8,2 C 14,5 C 11,9 km/h (2 Bft) 0,00 %
17.09.2015 21:50 15,9 C 63 % 1014,8 hPa 0,0 l/m 6,5 km/h (2 Bft) S 179 0 min 0,000 mm 0,0 UV-I 0 W/m 8,9 C 15,9 C 11,9 km/h (2 Bft) 0,00 %
17.09.2015 21:55 15,8 C 63 % 1015,1 hPa 0,0 l/m 5,8 km/h (2 Bft) O 101 0 min 0,000 mm 0,0 UV-I 0 W/m 8,8 C 15,8 C 7,9 km/h (2 Bft) 0,00 %
17.09.2015 22:00 15,7 C 64 % 1015,1 hPa 0,0 l/m 9,4 km/h (2 Bft) S-SW 197 0 min 0,000 mm 0,0 UV-I 0 W/m 8,9 C 14,2 C 15,8 km/h (3 Bft) 0,00 %
17.09.2015 22:05 15,6 C 64 % 1015,1 hPa 0,0 l/m 13,0 km/h (3 Bft) S-SW 204 0 min 0,000 mm 0,0 UV-I 0 W/m 8,8 C 12,6 C 15,8 km/h (3 Bft) 0,00 %
17.09.2015 22:10 15,5 C 64 % 1014,9 hPa 0,0 l/m 5,4 km/h (1 Bft) S 186 0 min 0,000 mm 0,0 UV-I 0 W/m 8,7 C 15,5 C 7,9 km/h (2 Bft) 0,00 %
17.09.2015 22:15 15,4 C 65 % 1015,0 hPa 0,0 l/m 0,4 km/h (0 Bft) S 184 0 min 0,000 mm 0,0 UV-I 0 W/m 8,9 C 15,4 C 4,0 km/h (1 Bft) 0,00 %
17.09.2015 22:20 15,3 C 65 % 1015,3 hPa 0,0 l/m 1,4 km/h (1 Bft) O 96 0 min 0,000 mm 0,0 UV-I 0 W/m 8,8 C 15,3 C 4,0 km/h (1 Bft) 0,00 %
17.09.2015 22:25 15,3 C 64 % 1015,1 hPa 0,0 l/m 2,2 km/h (1 Bft) SO 130 0 min 0,000 mm 0,0 UV-I 0 W/m 8,5 C 15,3 C 4,0 km/h (1 Bft) 0,00 %
17.09.2015 22:30 15,3 C 64 % 1015,4 hPa 0,0 l/m 4,3 km/h (1 Bft) S 189 0 min 0,000 mm 0,0 UV-I 0 W/m 8,5 C 15,3 C 7,9 km/h (2 Bft) 0,00 %
17.09.2015 22:35 15,3 C 64 % 1015,4 hPa 0,0 l/m 2,9 km/h (1 Bft) SW 222 0 min 0,000 mm 0,0 UV-I 0 W/m 8,5 C 15,3 C 7,9 km/h (2 Bft) 0,00 %
17.09.2015 22:40 15,3 C 64 % 1015,1 hPa 0,0 l/m 0,4 km/h (0 Bft) S-SO 148 0 min 0,000 mm 0,0 UV-I 0 W/m 8,5 C 15,3 C 4,0 km/h (1 Bft) 0,00 %
17.09.2015 22:45 15,2 C 64 % 1015,3 hPa 0,0 l/m 2,2 km/h (1 Bft) W-SW 253 0 min 0,000 mm 0,0 UV-I 0 W/m 8,4 C 15,2 C 4,0 km/h (1 Bft) 0,00 %
17.09.2015 22:50 15,2 C 65 % 1015,5 hPa 0,0 l/m 1,4 km/h (1 Bft) O-NO 66 0 min 0,000 mm 0,0 UV-I 0 W/m 8,7 C 15,2 C 4,0 km/h (1 Bft) 0,00 %
17.09.2015 22:55 15,2 C 65 % 1015,3 hPa 0,0 l/m 0,7 km/h (0 Bft) O-SO 115 0 min 0,000 mm 0,0 UV-I 0 W/m 8,7 C 15,2 C 4,0 km/h (1 Bft) 0,00 %
17.09.2015 23:00 15,2 C 65 % 1015,1 hPa 0,0 l/m 0,0 km/h (0 Bft) S 172 0 min 0,000 mm 0,0 UV-I 0 W/m 8,7 C 15,2 C 0,0 km/h (0 Bft) 0,00 %
17.09.2015 23:05 15,2 C 65 % 1014,8 hPa 0,0 l/m 0,0 km/h (0 Bft) O-NO 57 0 min 0,000 mm 0,0 UV-I 0 W/m 8,7 C 15,2 C 0,0 km/h (0 Bft) 0,00 %
17.09.2015 23:10 15,1 C 66 % 1015,1 hPa 0,0 l/m 0,0 km/h (0 Bft) O 80 0 min 0,000 mm 0,0 UV-I 0 W/m 8,8 C 15,1 C 0,0 km/h (0 Bft) 0,00 %
17.09.2015 23:15 15,1 C 65 % 1015,2 hPa 0,0 l/m 0,0 km/h (0 Bft) O-NO 63 0 min 0,000 mm 0,0 UV-I 0 W/m 8,6 C 15,1 C 0,0 km/h (0 Bft) 0,00 %
17.09.2015 23:20 15,1 C 66 % 1015,1 hPa 0,0 l/m 0,0 km/h (0 Bft) SO 136 0 min 0,000 mm 0,0 UV-I 0 W/m 8,8 C 15,1 C 0,0 km/h (0 Bft) 0,00 %
17.09.2015 23:25 15,0 C 65 % 1014,9 hPa 0,0 l/m 0,0 km/h (0 Bft) O 90 0 min 0,000 mm 0,0 UV-I 0 W/m 8,5 C 15,0 C 0,0 km/h (0 Bft) 0,00 %
17.09.2015 23:30 15,0 C 69 % 1015,0 hPa 0,0 l/m 0,0 km/h (0 Bft) O-NO 75 0 min 0,000 mm 0,0 UV-I 0 W/m 9,4 C 15,0 C 0,0 km/h (0 Bft) 0,00 %
17.09.2015 23:35 14,9 C 69 % 1015,0 hPa 0,0 l/m 0,0 km/h (0 Bft) O-NO 65 0 min 0,000 mm 0,0 UV-I 0 W/m 9,3 C 14,9 C 0,0 km/h (0 Bft) 0,00 %
17.09.2015 23:40 14,8 C 69 % 1015,0 hPa 0,0 l/m 0,0 km/h (0 Bft) O-NO 65 0 min 0,000 mm 0,0 UV-I 0 W/m 9,2 C 14,8 C 0,0 km/h (0 Bft) 0,00 %
17.09.2015 23:45 14,8 C 70 % 1015,0 hPa 0,0 l/m 0,0 km/h (0 Bft) O-NO 64 0 min 0,000 mm 0,0 UV-I 0 W/m 9,4 C 14,8 C 0,0 km/h (0 Bft) 0,00 %
17.09.2015 23:50 14,7 C 70 % 1015,1 hPa 0,0 l/m 0,0 km/h (0 Bft) O-NO 64 0 min 0,000 mm 0,0 UV-I 0 W/m 9,3 C 14,7 C 0,0 km/h (0 Bft) 0,00 %
17.09.2015 23:55 14,6 C 72 % 1015,2 hPa 0,0 l/m 0,0 km/h (0 Bft) O-NO 64 0 min 0,000 mm 0,0 UV-I 0 W/m 9,6 C 14,6 C 0,0 km/h (0 Bft) 0,00 %
_ Min-Zeit 06:59 13:00 16:50 - 00:04 - - - - - - 20:05 06:59 00:04 00:04
Minimum _ 12,0 C 32 % 999,8 hPa - 0,0 km/h (0 Bft) - - - - - - 7,5 C 12,0 C 0,0 km/h (0 Bft) 0,00 %
_ Max-Zeit 16:20 03:24 22:50 00:04 19:40 - - 10:40 00:04 12:55 12:55 17:30 16:20 19:10 00:04
Maximum _ 30,0 C 96 % 1015,5 hPa 0,0 l/m 24,5 km/h
SW (4 Bft)
- - 6 min 0,000 mm 3,0 UV-I 754 W/m 15,2 C 30,0 C 40,0 km/h
S-SW (6 Bft)
0,00 %
Durchschnitt _ 19,7 C 64 % 1004,9 hPa #0,0 l/m 3,2 km/h (1 Bft) O - #9:11 h #0,000 mm 1,3 UV-I 301 W/m 11,6 C 19,4 C 5,4 km/h (1 Bft) 0,00 %